Location: Bas-Clignon
(44.2000°N, 6.6333°E)
Time: 11:52:34
(UTC+00:00)

Cosmos 2315 Rocket - Pass Details

Date: 03 February 2023
Orbit: 966 x 1002 km, 82.9° (Epoch: 19 March)

Event Time Altitude Azimuth Distance (km) Brightness Sun altitude
Rises 18:46:36 0° 169° (S) 3,686 6.9 -21.9°
Reaches altitude 10° 18:49:10 10° 164° (SSE) 2,747 6.2 -22.4°
Maximum altitude 18:55:13 51° 91° (E) 1,244 4.1 -23.5°
Drops below altitude 10° 19:01:21 10° 18° (NNE) 2,782 6.2 -24.6°
Sets 19:03:57 0° 13° (NNE) 3,737 6.9 -25.0°
